[[{"header":{"parameterUnit":"m.s-1","parameterCategory":2,"la1":30.2991,"la2":30.254,"lo1":-89.0895,"lo2":-89.0444,"dy":0.0017,"dx":0.0017,"nx":28,"ny":28,"refTime":"2024-08-11T03:00:00:Z","depth":"0","parameterNumber":2,"parameterNumberName":"U-component_of_CURRENTS"},"data":[0,0,0,0,0,0,0,0,0,0,0,0,0,0,0,0,0,0,0,0,0,0,0,0,0,0,0,0,0,0,0,0,0,0,0,0,0,0,0,0,0,0,0,0,0,0,0,0,0,0,0,0,0,0,0,0,0,0,-0.2304,-0.2304,0,-0.228,-0.2279,-0.2279,-0.2285,-0.2285,-0.2286,-0.2287,-0.2199,-0.2196,-0.2193,0,0,0,0,0,0,0,0,0,0,0,0,0,-0.2244,-0.2246,-0.2304,-0.2304,-0.2304,-0.228,-0.2279,-0.2279,-0.2284,-0.2285,-0.2287,-0.2288,-0.22,-0.2196,-0.2192,0,0,0,0,0,0,0,0,0,0,0,0,0,-0.2246,-0.2246,-0.2304,-0.2308,-0.2308,-0.228,-0.2279,-0.2278,-0.2284,-0.2286,-0.2287,-0.2288,-0.2201,-0.2197,-0.2192,-0.2137,0,0,-0.2177,-0.2175,0,0,0,0,0,0,0,0,-0.2246,-0.2248,-0.2307,-0.2307,-0.2308,-0.229,-0.2226,-0.2229,-0.2284,-0.2289,-0.2287,-0.2289,-0.2225,-0.2219,-0.2206,-0.2133,-0.2129,-0.2177,-0.2174,-0.2172,-0.2171,0,0,0,0,0,0,0,-0.2246,-0.2248,-0.229,-0.2307,-0.2308,-0.2272,-0.2275,-0.2226,-0.2245,-0.2288,-0.229,-0.2293,-0.2225,-0.2211,-0.2204,-0.2128,-0.2177,-0.2173,-0.217,-0.2168,-0.1874,-0.187,0,0,0,0,0,0,-0.2263,-0.2249,-0.2291,-0.229,-0.2284,-0.2273,-0.2275,-0.2291,-0.2247,-0.2244,-0.2292,-0.2294,-0.2218,-0.221,-0.2201,-0.2112,-0.2172,-0.2168,-0.2165,-0.1879,-0.1873,-0.1868,0,0,0,0,0,0,-0.2262,-0.2267,-0.2292,-0.2271,-0.2273,-0.2274,-0.2291,-0.229,-0.2292,-0.2252,-0.2247,-0.2298,-0.2219,-0.2207,-0.2118,-0.211,-0.2166,-0.2161,-0.1885,-0.1877,-0.187,-0.1948,0,0,0,0,0,0,-0.226,-0.2267,-0.2277,-0.2273,-0.2275,-0.2265,-0.229,-0.2289,-0.2293,-0.2295,-0.2254,-0.2247,-0.2219,-0.2125,-0.2114,-0.2104,-0.2158,-0.1891,-0.1882,-0.1873,-0.1952,-0.1944,-0.1938,0,0,0,0,0,-0.2258,-0.2291,-0.2278,-0.2283,-0.2292,-0.2265,-0.226,-0.2262,-0.2293,-0.2273,-0.2225,-0.2249,-0.2057,-0.2117,-0.2105,-0.2095,-0.1896,-0.1884,-0.1874,-0.1955,-0.1946,-0.1938,0,0,0,0,0,0,-0.2271,-0.2294,-0.2281,-0.2317,-0.2279,-0.2267,-0.2273,-0.2269,-0.2221,-0.2233,-0.2197,-0.2182,-0.2093,-0.2054,-0.2122,-0.1964,-0.1975,-0.1961,-0.2041,-0.2032,-0.2025,-0.2065,-0.2154,0,0,0,0,0,-0.2276,-0.2307,-0.2287,-0.2307,-0.2301,-0.2283,-0.2277,-0.227,-0.2235,-0.2221,-0.2175,-0.2108,-0.2032,-0.2006,-0.1921,-0.1856,-0.1867,-0.1824,-0.1817,-0.1813,-0.1824,-0.1839,-0.1839,-0.1831,-0.1831,-0.1831,0,0,-0.2289,-0.2302,-0.232,-0.231,-0.2297,-0.226,-0.2283,-0.2279,-0.2237,-0.2214,-0.2139,-0.2082,-0.1997,-0.1908,-0.1866,-0.1888,-0.1808,-0.1798,-0.1797,-0.181,-0.1828,-0.183,-0.1833,-0.1823,-0.1825,-0.1826,0,0,-0.23,-0.2337,-0.2341,-0.2311,-0.2288,-0.227,-0.2269,-0.2235,-0.2214,-0.2123,-0.209,-0.2033,-0.1904,-0.1862,-0.1823,-0.172,-0.176,-0.1672,-0.1702,-0.1717,-0.1722,-0.1726,-0.1731,-0.1735,-0.1687,-0.1687,-0.1687,0,-0.2309,-0.2314,-0.2328,-0.2298,-0.2291,-0.2273,-0.2246,-0.2203,-0.2129,-0.2121,-0.2094,-0.1945,-0.1887,-0.1823,-0.1771,-0.1721,-0.1726,-0.177,-0.1724,-0.1727,-0.1731,-0.1735,-0.1739,-0.169,-0.1689,-0.1689,-0.1689,0,-0.2281,-0.2288,-0.2295,-0.2255,-0.2232,-0.2224,-0.2168,-0.2134,-0.2113,-0.2078,-0.2003,-0.1914,-0.1845,-0.1801,-0.1755,-0.1731,-0.1724,-0.1718,-0.1786,-0.1739,-0.1742,-0.1745,-0.1693,-0.1692,-0.1691,-0.1691,0,0,-0.2283,-0.2286,-0.2276,-0.2273,-0.2228,-0.2213,-0.2155,-0.2116,-0.2112,-0.2022,-0.201,-0.1877,-0.1876,-0.1824,-0.1777,-0.1782,-0.1798,-0.1761,-0.1761,-0.1837,-0.183,-0.1638,-0.1623,-0.1807,-0.1807,-0.1808,-0.1825,0,-0.225,-0.2237,-0.2228,-0.2195,-0.2193,-0.2178,-0.2129,-0.2091,-0.2056,-0.2021,-0.1981,-0.1925,-0.1869,-0.1855,-0.1845,-0.1804,-0.1808,-0.1794,-0.1799,-0.1799,-0.1695,-0.162,-0.1496,-0.1483,-0.1828,-0.1828,-0.1829,0,-0.2191,-0.2206,-0.2199,-0.2218,-0.2214,-0.2178,-0.2171,-0.2122,-0.2082,-0.2062,-0.2036,-0.1993,-0.1963,-0.1923,-0.189,-0.1886,-0.1854,-0.1833,-0.1834,-0.1635,-0.1611,-0.1574,-0.1475,-0.1395,-0.1833,-0.1833,-0.1833,0,-0.2187,-0.2181,-0.2204,-0.2199,-0.2193,-0.2194,-0.2183,-0.2146,-0.2125,-0.2105,-0.21,-0.2063,-0.2037,-0.2012,-0.1908,-0.1928,-0.1866,-0.1901,-0.1704,-0.1692,-0.1571,-0.1544,-0.1455,-0.1888,-0.1888,-0.1888,-0.1888,0,-0.2167,-0.2166,-0.2212,-0.2216,-0.222,-0.2218,-0.221,-0.2192,-0.2176,-0.2141,-0.213,-0.2075,-0.2059,-0.1994,-0.1937,-0.1786,-0.1891,-0.1689,-0.1672,-0.158,-0.1555,-0.1465,-0.15,-0.1888,-0.1888,-0.1888,-0.1888,0,-0.2118,-0.2166,-0.2179,-0.2213,-0.2217,-0.2211,-0.221,-0.22,-0.2206,-0.2162,-0.2162,-0.2108,-0.2,-0.1936,-0.1872,-0.1794,-0.1638,-0.1622,-0.149,-0.1452,-0.1188,-0.1231,-0.1199,-0.1176,-0.1454,-0.1449,-0.1445,0,-0.208,-0.2093,-0.2154,-0.2163,-0.217,-0.2176,-0.2168,-0.219,-0.2176,-0.2135,-0.2103,-0.2013,-0.1857,-0.1681,-0.153,-0.1395,-0.1425,-0.1234,-0.1228,-0.1121,-0.1161,-0.125,-0.1244,-0.112,-0.1113,-0.1108,-0.1104,0,-0.1975,-0.2018,-0.2042,-0.2075,-0.2088,-0.2096,-0.2097,-0.2097,-0.2101,-0.2047,-0.192,-0.1805,-0.159,-0.1319,-0.1134,-0.1069,-0.1171,-0.1116,-0.1068,-0.0914,-0.0952,-0.0937,-0.117,-0.1057,-0.1062,-0.1065,-0.1068,-0.107,-0.1865,-0.1866,-0.1921,-0.1929,-0.1965,-0.1971,-0.1913,-0.1917,-0.1849,-0.1687,-0.1682,-0.1384,-0.1129,-0.0804,-0.0767,-0.0578,-0.0775,-0.0562,-0.0637,-0.0746,-0.0661,-0.0745,-0.0556,-0.0558,-0.0559,-0.056,-0.0562,0,-0.1675,-0.1719,-0.175,-0.1774,-0.1756,-0.1821,-0.1808,-0.1704,-0.1544,-0.1388,-0.1195,-0.0749,-0.0473,-0.0317,-0.0083,-0.0079,-0.023,-0.0139,-0.0279,-0.031,-0.0411,-0.0321,0.0006,0.0006,0.0006,0.0006,0.0006,0.0006,-0.1575,-0.1552,-0.1591,-0.1527,-0.1545,-0.1442,-0.1391,-0.1267,-0.1116,-0.0719,-0.0396,-0.0239,-0.001,0.0234,0.0331,0.0253,0.0108,0.0061,-0.0036,-0.0114,-0.0161,-0.0207,-0.0124,0.0239,0.0239,0.0098,0.0097,0.0096]},{"header":{"parameterUnit":"m.s-1","parameterCategory":2,"la1":30.2991,"la2":30.254,"lo1":-89.0895,"lo2":-89.0444,"dy":0.0017,"dx":0.0017,"nx":28,"ny":28,"refTime":"2024-08-11T03:00:00:Z","depth":"0","parameterNumber":3,"parameterNumberName":"V-component_of_CURRENTS"},"data":[0,0,0,0,0,0,0,0,0,0,0,0,0,0,0,0,0,0,0,0,0,0,0,0,0,0,0,0,0,0,0,0,0,0,0,0,0,0,0,0,0,0,0,0,0,0,0,0,0,0,0,0,0,0,0,0,0,0,-0.0479,-0.0477,0,-0.0298,-0.0296,-0.0295,-0.0295,-0.0298,-0.03,-0.0302,-0.0092,-0.0085,-0.0077,0,0,0,0,0,0,0,0,0,0,0,0,0,-0.063,-0.0629,-0.0479,-0.0477,-0.0475,-0.0299,-0.0296,-0.0294,-0.0295,-0.0298,-0.0301,-0.0303,-0.0095,-0.0085,-0.0076,0,0,0,0,0,0,0,0,0,0,0,0,0,-0.052,-0.0629,-0.048,-0.0453,-0.0449,-0.0299,-0.0296,-0.0293,-0.0294,-0.0298,-0.0301,-0.0304,-0.0098,-0.0086,-0.0075,0.0064,0,0,-0.004,-0.0035,0,0,0,0,0,0,0,0,-0.0527,-0.0515,-0.0459,-0.0455,-0.045,-0.0322,-0.0272,-0.0172,-0.0294,-0.0354,-0.0302,-0.0306,-0.0163,-0.0146,-0.0107,0.0074,0.0083,-0.0039,-0.0032,-0.0027,-0.0023,0,0,0,0,0,0,0,-0.0535,-0.0522,-0.0409,-0.0456,-0.045,-0.0383,-0.0373,-0.0253,-0.0242,-0.0349,-0.0349,-0.0325,-0.0161,-0.0118,-0.0102,0.0086,-0.0039,-0.0029,-0.0022,-0.0017,0.0347,0.0349,0,0,0,0,0,0,-0.0561,-0.053,-0.0415,-0.0403,-0.0496,-0.0378,-0.0367,-0.036,-0.0244,-0.0229,-0.0323,-0.0326,-0.0136,-0.0115,-0.0094,0.0004,-0.0027,-0.0016,-0.0009,0.0344,0.0347,0.035,0,0,0,0,0,0,-0.0565,-0.0553,-0.0422,-0.046,-0.0439,-0.0374,-0.0365,-0.0355,-0.0312,-0.0224,-0.021,-0.0291,-0.0138,-0.011,0.002,0.0014,-0.0011,-0.0,0.0341,0.0345,0.0349,0.0248,0,0,0,0,0,0,-0.057,-0.0556,-0.0548,-0.0463,-0.0438,-0.0312,-0.0361,-0.0349,-0.0292,-0.0295,-0.019,-0.0175,-0.0138,0.0002,0.0031,0.003,0.0009,0.0337,0.0343,0.0347,0.0248,0.0248,0.0248,0,0,0,0,0,-0.0576,-0.0539,-0.0549,-0.0534,-0.0434,-0.0309,-0.0288,-0.0254,-0.0287,-0.0235,-0.0184,-0.0178,0.0053,0.0016,0.0048,0.0049,0.0335,0.0341,0.0347,0.0248,0.0248,0.0248,0,0,0,0,0,0,-0.0581,-0.0533,-0.0542,-0.0491,-0.0404,-0.0309,-0.025,-0.0238,-0.0155,-0.0163,-0.0115,-0.0091,0.0011,0.0077,0.0033,0.0175,0.0187,0.02,0.01,0.0101,0.0102,0.0019,0.0018,0,0,0,0,0,-0.0584,-0.0559,-0.0483,-0.0435,-0.0393,-0.0324,-0.027,-0.0243,-0.0163,-0.0132,-0.0068,0.0004,0.0071,0.0118,0.0212,0.0319,0.032,0.0339,0.0339,0.0338,0.0299,0.0285,0.0277,0.037,0.037,0.037,0,0,-0.0574,-0.054,-0.0527,-0.0436,-0.0371,-0.0309,-0.0299,-0.0199,-0.0178,-0.0113,-0.0044,0.0028,0.0107,0.0195,0.0245,0.0242,0.0328,0.0346,0.0343,0.0304,0.029,0.028,0.027,0.0375,0.0374,0.0373,0,0,-0.0514,-0.0505,-0.0456,-0.0397,-0.0297,-0.0262,-0.0237,-0.0132,-0.0116,-0.0008,-0.0001,0.0059,0.0222,0.0225,0.0252,0.0329,0.0335,0.038,0.0303,0.0291,0.028,0.0271,0.0299,0.0292,0.0369,0.0369,0.0369,0,-0.05,-0.0469,-0.0409,-0.0345,-0.033,-0.0254,-0.0215,-0.0157,-0.0034,-0.0044,0.001,0.0132,0.0211,0.0214,0.0231,0.0315,0.0329,0.0279,0.028,0.027,0.0262,0.0293,0.0286,0.0365,0.0365,0.0366,0.0366,0,-0.0405,-0.04,-0.0352,-0.0302,-0.0252,-0.0194,-0.0139,-0.0094,-0.007,-0.0045,0.0004,0.0112,0.0151,0.02,0.0242,0.0217,0.0257,0.0278,0.0249,0.0244,0.0281,0.0276,0.0359,0.036,0.0361,0.0362,0,0,-0.0359,-0.0312,-0.0306,-0.0337,-0.0256,-0.0219,-0.0186,-0.017,-0.0197,-0.008,-0.0114,-0.0006,0.0017,0.0051,0.0106,0.0104,0.0087,0.0161,0.0162,0.0135,0.0085,0.0057,0.005,0.0097,0.0095,0.0094,0.0146,0,-0.0326,-0.029,-0.026,-0.0268,-0.0274,-0.0249,-0.0243,-0.0222,-0.0188,-0.0175,-0.0132,-0.0095,-0.0031,-0.0007,-0.0009,0.0078,0.0064,0.0072,0.014,0.0142,0.0071,0.0039,0.0078,0.012,0.0141,0.0141,0.014,0,-0.0272,-0.0284,-0.0296,-0.0367,-0.036,-0.0343,-0.0402,-0.0372,-0.0351,-0.0322,-0.0308,-0.0244,-0.0225,-0.0153,-0.0096,-0.0091,-0.003,0.0031,0.0035,0.0022,0.0101,0.0129,0.0111,0.0202,0.0133,0.0133,0.0134,0,-0.0351,-0.0339,-0.0395,-0.0401,-0.0412,-0.0439,-0.0443,-0.0432,-0.0437,-0.0417,-0.0399,-0.0376,-0.0313,-0.0277,-0.0137,-0.012,-0.0059,-0.0018,0.0002,0.0004,0.0052,0.006,0.0071,-0.0028,-0.0028,-0.0029,-0.0029,0,-0.0388,-0.0433,-0.0442,-0.0474,-0.0553,-0.0522,-0.0577,-0.0572,-0.0546,-0.0534,-0.0483,-0.0446,-0.0341,-0.0272,-0.0186,-0.0106,-0.0106,-0.0043,-0.0011,0.003,0.0034,0.0128,0.0153,-0.0026,-0.0027,-0.0027,-0.0028,0,-0.0465,-0.0465,-0.0541,-0.0579,-0.0593,-0.0645,-0.0652,-0.0671,-0.0635,-0.0605,-0.0594,-0.0494,-0.0399,-0.0309,-0.0195,-0.0147,-0.0045,-0.006,-0.0002,0.0031,0.0096,0.0114,0.0081,0.0136,-0.0051,-0.0052,-0.0052,0,-0.0493,-0.054,-0.0622,-0.0666,-0.068,-0.0732,-0.075,-0.0727,-0.0703,-0.0613,-0.0582,-0.0498,-0.0414,-0.0291,-0.0204,-0.0121,-0.0045,-0.0041,-0.0039,0.0064,0.011,0.0107,0.0157,0.0032,0.0032,0.0032,0.0032,0,-0.0563,-0.0595,-0.0664,-0.0749,-0.0791,-0.0827,-0.0822,-0.0807,-0.0722,-0.0654,-0.0527,-0.0467,-0.0376,-0.0259,-0.0189,-0.013,-0.0003,-0.0042,0.005,0.0128,0.014,0.0224,0.0071,0.0033,0.0033,0.0033,0.0033,0.0033,-0.0606,-0.0677,-0.0751,-0.0826,-0.087,-0.0852,-0.0816,-0.0755,-0.0664,-0.0441,-0.0427,-0.0202,-0.0188,-0.0096,-0.0088,0.0016,-0.0016,0.0096,0.0104,0.0088,0.0126,-0.0039,-0.0046,-0.0047,-0.0047,-0.0047,-0.0048,0,-0.0646,-0.0714,-0.0803,-0.0861,-0.0862,-0.087,-0.0803,-0.0688,-0.0498,-0.0285,-0.0113,0.0184,0.0162,0.0174,0.0174,0.0199,0.0222,0.0248,0.0296,0.034,0.0204,0.0194,0.0254,0.0254,0.0254,0.0254,0.0253,0.0253,-0.0667,-0.076,-0.0804,-0.0809,-0.081,-0.07,-0.0614,-0.0452,-0.0258,0.0165,0.0506,0.0699,0.0722,0.0428,0.039,0.0399,0.0499,0.0436,0.0483,0.0449,0.0438,0.0428,0.0427,0.0534,0.0534,0.0661,0.0662,0.0663]}],[{"header":{"parameterUnit":"m.s-1","parameterCategory":2,"la1":30.2991,"la2":30.254,"lo1":-89.0895,"lo2":-89.0444,"dy":0.0017,"dx":0.0017,"nx":28,"ny":28,"refTime":"2024-08-11T03:00:00:Z","depth":"2","parameterNumber":2,"parameterNumberName":"U-component_of_CURRENTS"},"data":[0,0,0,0,0,0,0,0,0,0,0,0,0,0,0,0,0,0,0,0,0,0,0,0,0,0,0,0,0,0,0,0,0,0,0,0,0,0,0,0,0,0,0,0,0,0,0,0,0,0,0,0,0,0,0,0,0,0,-0.1911,-0.1912,0,-0.1963,-0.1964,-0.1964,-0.2025,-0.2026,-0.2027,-0.2028,-0.2036,-0.2036,-0.2035,0,0,0,0,0,0,0,0,0,0,0,0,0,-0.1794,-0.1796,-0.1911,-0.1912,-0.1913,-0.1963,-0.1964,-0.1964,-0.2025,-0.2026,-0.2027,-0.2028,-0.2036,-0.2036,-0.2035,0,0,0,0,0,0,0,0,0,0,0,0,0,-0.1844,-0.1797,-0.1911,-0.195,-0.1954,-0.1963,-0.1964,-0.1965,-0.2025,-0.2026,-0.2028,-0.2029,-0.2037,-0.2036,-0.2035,-0.1998,0,0,-0.2031,-0.2031,0,0,0,0,0,0,0,0,-0.1842,-0.1849,-0.1943,-0.1947,-0.1952,-0.199,-0.1926,-0.1974,-0.2024,-0.1996,-0.2028,-0.203,-0.2016,-0.2017,-0.2023,-0.1998,-0.1998,-0.2031,-0.2031,-0.203,-0.203,0,0,0,0,0,0,0,-0.1838,-0.1846,-0.1931,-0.1944,-0.1949,-0.194,-0.195,-0.1935,-0.1996,-0.1999,-0.2004,-0.2011,-0.2018,-0.2023,-0.2023,-0.1999,-0.2031,-0.203,-0.203,-0.2029,-0.1811,-0.1806,0,0,0,0,0,0,-0.1836,-0.1843,-0.1929,-0.1932,-0.19,-0.1942,-0.1952,-0.1975,-0.1997,-0.2002,-0.2009,-0.2013,-0.2025,-0.2024,-0.2024,-0.1948,-0.203,-0.2029,-0.2028,-0.1816,-0.1809,-0.1804,0,0,0,0,0,0,-0.1834,-0.1844,-0.1927,-0.1889,-0.1899,-0.1943,-0.1968,-0.1976,-0.2027,-0.2005,-0.201,-0.2058,-0.2026,-0.2025,-0.1977,-0.195,-0.2029,-0.2028,-0.1822,-0.1814,-0.1807,-0.1818,0,0,0,0,0,0,-0.183,-0.1843,-0.1858,-0.1889,-0.1901,-0.1954,-0.1967,-0.1976,-0.2026,-0.2034,-0.2047,-0.2048,-0.2027,-0.1978,-0.1976,-0.195,-0.2027,-0.1828,-0.1818,-0.1809,-0.1824,-0.1812,-0.1801,0,0,0,0,0,-0.1826,-0.1851,-0.1859,-0.1869,-0.1922,-0.1955,-0.1961,-0.1995,-0.2028,-0.2048,-0.201,-0.205,-0.1914,-0.1974,-0.1972,-0.1946,-0.1833,-0.1821,-0.181,-0.183,-0.1814,-0.1801,0,0,0,0,0,0,-0.1825,-0.186,-0.187,-0.1909,-0.1936,-0.1967,-0.2,-0.202,-0.2015,-0.2018,-0.2008,-0.2002,-0.1945,-0.1921,-0.1988,-0.1836,-0.1871,-0.1858,-0.1886,-0.1871,-0.186,-0.1849,-0.2026,0,0,0,0,0,-0.1824,-0.185,-0.188,-0.1916,-0.194,-0.1977,-0.1999,-0.2013,-0.2012,-0.2019,-0.1997,-0.1945,-0.1886,-0.1867,-0.1812,-0.1754,-0.174,-0.1716,-0.1705,-0.1696,-0.1673,-0.1624,-0.161,-0.1766,-0.1766,-0.1766,0,0,-0.1839,-0.1858,-0.1877,-0.1915,-0.1952,-0.1952,-0.1997,-0.2039,-0.2007,-0.2013,-0.196,-0.1924,-0.1858,-0.1771,-0.1743,-0.1761,-0.1639,-0.1682,-0.1676,-0.1657,-0.1611,-0.1597,-0.1585,-0.1758,-0.1759,-0.1761,0,0,-0.1859,-0.1904,-0.192,-0.1935,-0.197,-0.197,-0.1992,-0.2009,-0.2,-0.1936,-0.1908,-0.1842,-0.177,-0.1696,-0.1657,-0.1542,-0.1586,-0.153,-0.1474,-0.1428,-0.1417,-0.1407,-0.1381,-0.1368,-0.1521,-0.1521,-0.1521,0,-0.1866,-0.1879,-0.1932,-0.1938,-0.1935,-0.1981,-0.1972,-0.1962,-0.1935,-0.1893,-0.1909,-0.1747,-0.1717,-0.1597,-0.1539,-0.1526,-0.1517,-0.1558,-0.1423,-0.1412,-0.1402,-0.1377,-0.1364,-0.152,-0.152,-0.152,-0.152,0,-0.1877,-0.1881,-0.1906,-0.1903,-0.1913,-0.192,-0.1907,-0.1881,-0.1864,-0.1823,-0.1718,-0.1648,-0.155,-0.1523,-0.1501,-0.1393,-0.1417,-0.1434,-0.1488,-0.1389,-0.1366,-0.1353,-0.1519,-0.1519,-0.1519,-0.1519,0,0,-0.1862,-0.1899,-0.189,-0.1881,-0.1883,-0.1889,-0.1834,-0.1776,-0.1735,-0.1669,-0.1596,-0.1464,-0.145,-0.1395,-0.1368,-0.1315,-0.1246,-0.1343,-0.1341,-0.1368,-0.1165,-0.1124,-0.1106,-0.1268,-0.1265,-0.1262,-0.1185,0,-0.1832,-0.1819,-0.1831,-0.1796,-0.1794,-0.1792,-0.1733,-0.1684,-0.1639,-0.1572,-0.1498,-0.1415,-0.1398,-0.1362,-0.1303,-0.1268,-0.1206,-0.1265,-0.1208,-0.1205,-0.1225,-0.1086,-0.0983,-0.09,-0.1172,-0.117,-0.1168,0,-0.1784,-0.1785,-0.175,-0.1728,-0.1729,-0.1693,-0.1618,-0.1571,-0.1492,-0.146,-0.1379,-0.1353,-0.1243,-0.1266,-0.114,-0.1192,-0.1154,-0.1132,-0.1129,-0.1073,-0.1136,-0.103,-0.0865,-0.1145,-0.1147,-0.1149,-0.115,0,-0.1708,-0.17,-0.1663,-0.1659,-0.1651,-0.1609,-0.1581,-0.1514,-0.1467,-0.1389,-0.136,-0.1258,-0.1206,-0.1144,-0.1085,-0.1117,-0.0982,-0.1028,-0.0945,-0.0945,-0.0827,-0.082,-0.0914,-0.0914,-0.0914,-0.0914,-0.0914,0,-0.1624,-0.1596,-0.1626,-0.1607,-0.1548,-0.156,-0.1478,-0.1439,-0.1389,-0.1321,-0.1297,-0.1226,-0.1174,-0.1106,-0.1066,-0.0951,-0.0957,-0.089,-0.0897,-0.0824,-0.0818,-0.1008,-0.102,-0.0911,-0.0912,-0.0912,-0.0913,0,-0.153,-0.155,-0.1522,-0.152,-0.1511,-0.1464,-0.1427,-0.1372,-0.1342,-0.1263,-0.1238,-0.1182,-0.1071,-0.1025,-0.0923,-0.0905,-0.082,-0.0778,-0.0704,-0.0701,-0.0827,-0.0839,-0.0673,-0.067,-0.0668,-0.0666,-0.0665,0,-0.1473,-0.1452,-0.1457,-0.1434,-0.1425,-0.1377,-0.1335,-0.1322,-0.1275,-0.1213,-0.1166,-0.1069,-0.0955,-0.0816,-0.0734,-0.0634,-0.0706,-0.0531,-0.0542,-0.0766,-0.079,-0.0806,-0.0821,-0.04,-0.0397,-0.0394,-0.0391,0,-0.1366,-0.1377,-0.1359,-0.1321,-0.1283,-0.1254,-0.1204,-0.1169,-0.1143,-0.1094,-0.0992,-0.0907,-0.0759,-0.0593,-0.0498,-0.0437,-0.0546,-0.0468,-0.0678,-0.0486,-0.0504,-0.0531,-0.0554,-0.0365,-0.0368,-0.0369,-0.0371,-0.0372,-0.1277,-0.1238,-0.1217,-0.1169,-0.1144,-0.1097,-0.1032,-0.0997,-0.0918,-0.0813,-0.0824,-0.0697,-0.0616,-0.04,-0.0311,-0.0258,-0.0309,-0.031,-0.032,-0.0334,-0.0324,-0.0337,-0.0167,-0.0168,-0.017,-0.0171,-0.0172,0,-0.1142,-0.1105,-0.1062,-0.1005,-0.0952,-0.0981,-0.0914,-0.0821,-0.0692,-0.0643,-0.055,-0.044,-0.031,-0.0253,-0.0105,-0.006,-0.0072,-0.0064,-0.0087,-0.011,-0.0131,-0.0116,0.0099,0.0099,0.0099,0.0099,0,0,-0.1059,-0.0971,-0.0953,-0.0821,-0.0791,-0.0687,-0.0633,-0.05,-0.0421,-0.0288,-0.0264,-0.0298,-0.0255,-0.0135,-0.003,0.0058,-0.0034,0.0079,-0.0125,-0.0172,-0.0194,-0.0241,-0.0237,0,0,0,0,0]},{"header":{"parameterUnit":"m.s-1","parameterCategory":2,"la1":30.2991,"la2":30.254,"lo1":-89.0895,"lo2":-89.0444,"dy":0.0017,"dx":0.0017,"nx":28,"ny":28,"refTime":"2024-08-11T03:00:00:Z","depth":"2","parameterNumber":3,"parameterNumberName":"V-component_of_CURRENTS"},"data":[0,0,0,0,0,0,0,0,0,0,0,0,0,0,0,0,0,0,0,0,0,0,0,0,0,0,0,0,0,0,0,0,0,0,0,0,0,0,0,0,0,0,0,0,0,0,0,0,0,0,0,0,0,0,0,0,0,0,-0.0529,-0.0528,0,-0.0451,-0.045,-0.0449,-0.0386,-0.0385,-0.0385,-0.0384,-0.007,-0.0063,-0.0055,0,0,0,0,0,0,0,0,0,0,0,0,0,-0.053,-0.0531,-0.0529,-0.0528,-0.0527,-0.0451,-0.045,-0.0449,-0.0386,-0.0385,-0.0384,-0.0384,-0.0073,-0.0064,-0.0054,0,0,0,0,0,0,0,0,0,0,0,0,0,-0.0499,-0.0531,-0.0529,-0.0486,-0.0481,-0.0451,-0.045,-0.0449,-0.0386,-0.0385,-0.0384,-0.0383,-0.0076,-0.0064,-0.0053,-0.0002,0,0,-0.0018,-0.0013,0,0,0,0,0,0,0,0,-0.0501,-0.0499,-0.0493,-0.0489,-0.0484,-0.0427,-0.0336,-0.0288,-0.0386,-0.0423,-0.0384,-0.0383,-0.0168,-0.0149,-0.014,0.0012,0.0026,-0.0017,-0.001,-0.0005,-0.0001,0,0,0,0,0,0,0,-0.0504,-0.0502,-0.0498,-0.0492,-0.0486,-0.0439,-0.0434,-0.0327,-0.0298,-0.0419,-0.0415,-0.0406,-0.0164,-0.0152,-0.0132,0.0031,-0.0017,-0.0007,0.0,0.0005,0.0298,0.0299,0,0,0,0,0,0,-0.0519,-0.0505,-0.0501,-0.0496,-0.049,-0.044,-0.0435,-0.0446,-0.0304,-0.0283,-0.0407,-0.0403,-0.0172,-0.0145,-0.012,0.0049,-0.0005,0.0006,0.0013,0.0298,0.0299,0.03,0,0,0,0,0,0,-0.052,-0.052,-0.0504,-0.0497,-0.0491,-0.0442,-0.0455,-0.0445,-0.04,-0.0297,-0.0271,-0.0367,-0.017,-0.0136,0.0018,0.0059,0.0011,0.0022,0.0297,0.0298,0.0299,0.0326,0,0,0,0,0,0,-0.0521,-0.0522,-0.0531,-0.0499,-0.0492,-0.0444,-0.0455,-0.0445,-0.0398,-0.0392,-0.0254,-0.0227,-0.0167,-0.0,0.0029,0.0074,0.0031,0.0295,0.0297,0.0299,0.0324,0.0328,0.0331,0,0,0,0,0,-0.0521,-0.0545,-0.0532,-0.0531,-0.0509,-0.0441,-0.0432,-0.0394,-0.0397,-0.0354,-0.0267,-0.023,0.0028,0.0012,0.0045,0.0094,0.0295,0.0297,0.0299,0.0322,0.0327,0.0331,0,0,0,0,0,0,-0.0547,-0.054,-0.0525,-0.0545,-0.0474,-0.0429,-0.0409,-0.0378,-0.0286,-0.0279,-0.0186,-0.015,-0.0021,0.0035,0.0013,0.0174,0.0155,0.0164,0.0161,0.0167,0.0171,0.0156,0.004,0,0,0,0,0,-0.056,-0.0577,-0.0526,-0.053,-0.0503,-0.0449,-0.042,-0.0385,-0.0308,-0.0269,-0.0171,-0.0082,0.0004,0.0088,0.0165,0.0293,0.0299,0.0331,0.0335,0.0338,0.0345,0.0411,0.0422,0.0306,0.0306,0.0306,0,0,-0.057,-0.0569,-0.0575,-0.0535,-0.0494,-0.0433,-0.0428,-0.0374,-0.0311,-0.0243,-0.0121,-0.0058,0.0034,0.0152,0.0215,0.0221,0.0361,0.0341,0.0343,0.0348,0.0414,0.0426,0.0436,0.0307,0.0307,0.0307,0,0,-0.0577,-0.0591,-0.0586,-0.0528,-0.046,-0.0421,-0.0394,-0.0316,-0.0268,-0.0146,-0.0107,-0.0004,0.0147,0.0221,0.0273,0.0351,0.0361,0.0361,0.0408,0.0472,0.0483,0.0492,0.0458,0.0464,0.0386,0.0386,0.0386,0,-0.058,-0.0576,-0.0561,-0.0514,-0.0465,-0.0409,-0.0344,-0.0289,-0.0162,-0.0109,-0.0098,0.0088,0.0175,0.0309,0.0327,0.0365,0.0364,0.0389,0.0478,0.0488,0.0498,0.0461,0.0468,0.0388,0.0388,0.0387,0.0387,0,-0.056,-0.0537,-0.0523,-0.0456,-0.0391,-0.0334,-0.0246,-0.017,-0.0118,-0.0059,0.0075,0.0176,0.029,0.0322,0.0362,0.0469,0.0428,0.0457,0.0468,0.0511,0.0468,0.0475,0.039,0.0389,0.0389,0.0389,0,0,-0.0592,-0.0529,-0.0513,-0.0464,-0.0357,-0.03,-0.0197,-0.0084,-0.0021,0.0087,0.0177,0.0317,0.0348,0.0406,0.0462,0.0532,0.0581,0.0529,0.0531,0.0493,0.0651,0.0563,0.056,0.0633,0.0636,0.0638,0.0574,0,-0.0561,-0.0511,-0.046,-0.0351,-0.0305,-0.0209,-0.0115,-0.0007,0.0074,0.0173,0.0263,0.0359,0.0385,0.0437,0.0515,0.0561,0.0609,0.0591,0.0616,0.0615,0.0534,0.0571,0.0604,0.0548,0.058,0.0581,0.0582,0,-0.0524,-0.0506,-0.0434,-0.0314,-0.0278,-0.0191,-0.0044,0.0048,0.0183,0.024,0.0342,0.0395,0.0506,0.0516,0.0622,0.0606,0.0632,0.0659,0.0658,0.0578,0.0542,0.0522,0.0558,0.0593,0.0592,0.0591,0.0591,0,-0.0559,-0.0457,-0.0417,-0.0374,-0.0244,-0.0163,-0.0073,0.0072,0.0139,0.0275,0.031,0.0445,0.0486,0.0573,0.0603,0.0629,0.0672,0.0719,0.0653,0.0642,0.0677,0.0666,0.0801,0.0801,0.0801,0.0801,0.0801,0,-0.0545,-0.0485,-0.0431,-0.04,-0.0309,-0.019,-0.0073,0.0031,0.0151,0.0212,0.033,0.0367,0.0508,0.054,0.0595,0.0603,0.0662,0.0654,0.0644,0.0677,0.0667,0.0727,0.0719,0.0799,0.0799,0.08,0.08,0,-0.0544,-0.0525,-0.0464,-0.0365,-0.0324,-0.025,-0.0096,-0.0027,0.0085,0.016,0.0192,0.0301,0.0336,0.0415,0.0514,0.0557,0.06,0.0588,0.0554,0.0544,0.0525,0.0519,0.0538,0.0535,0.0532,0.053,0.0528,0,-0.0526,-0.0519,-0.0468,-0.0441,-0.038,-0.0276,-0.0208,-0.0073,-0.002,0.0098,0.0109,0.0168,0.0211,0.0272,0.0366,0.0423,0.0465,0.0472,0.0565,0.0521,0.051,0.0508,0.0506,0.0594,0.0593,0.0592,0.0591,0,-0.049,-0.0496,-0.0471,-0.0455,-0.0393,-0.0336,-0.0238,-0.0229,-0.0096,-0.0054,-0.0005,0.0046,0.0129,0.0225,0.0284,0.0332,0.0476,0.0451,0.0465,0.0641,0.0566,0.0556,0.0555,0.0582,0.0583,0.0584,0.0584,0.0585,-0.0452,-0.0452,-0.046,-0.0426,-0.0388,-0.0378,-0.0356,-0.0302,-0.0265,-0.0178,-0.0121,0.0001,0.0124,0.0241,0.0267,0.0326,0.0364,0.0444,0.0451,0.0459,0.0464,0.0388,0.0365,0.0365,0.0364,0.0364,0.0364,0,-0.0413,-0.0426,-0.0415,-0.0405,-0.0397,-0.0361,-0.0356,-0.036,-0.0364,-0.0228,-0.0151,-0.0004,0.012,0.0227,0.0332,0.0372,0.0422,0.0364,0.0464,0.0473,0.0481,0.0491,0.0397,0.0397,0.0396,0.0396,0,0,-0.039,-0.0402,-0.0423,-0.0414,-0.0396,-0.0395,-0.0412,-0.0443,-0.0371,-0.0287,-0.0131,0.0047,0.0206,0.0268,0.0318,0.0373,0.0404,0.0363,0.0344,0.0467,0.0473,0.0542,0.0568,0,0,0,0,0]}],[{"header":{"parameterUnit":"m.s-1","parameterCategory":2,"la1":30.2991,"la2":30.254,"lo1":-89.0895,"lo2":-89.0444,"dy":0.0017,"dx":0.0017,"nx":28,"ny":28,"refTime":"2024-08-11T03:00:00:Z","depth":"4","parameterNumber":2,"parameterNumberName":"U-component_of_CURRENTS"},"data":[0,0,0,0,0,0,0,0,0,0,0,0,0,0,0,0,0,0,0,0,0,0,0,0,0,0,0,0,0,0,0,0,0,0,0,0,0,0,0,0,0,0,0,0,0,0,0,0,0,0,0,0,0,0,0,0,0,0,-0.0794,-0.0793,0,-0.0743,-0.0743,-0.0742,-0.0766,-0.0768,-0.0769,-0.077,-0.0769,-0.0768,-0.0767,0,0,0,0,0,0,0,0,0,0,0,0,0,-0.077,-0.0771,-0.0794,-0.0793,-0.0792,-0.0744,-0.0743,-0.0742,-0.0766,-0.0768,-0.0769,-0.0771,-0.077,-0.0768,-0.0767,0,0,0,0,0,0,0,0,0,0,0,0,0,-0.0757,-0.0772,-0.0794,-0.0798,-0.0798,-0.0744,-0.0743,-0.0742,-0.0766,-0.0768,-0.077,-0.0771,-0.077,-0.0768,-0.0767,-0.072,0,0,-0.0761,-0.0761,0,0,0,0,0,0,0,0,-0.0758,-0.0758,-0.0798,-0.0797,-0.0797,-0.0762,-0.0734,-0.0737,-0.0765,-0.0779,-0.077,-0.0772,-0.077,-0.0768,-0.0755,-0.072,-0.072,-0.0761,-0.076,-0.0759,-0.0759,0,0,0,0,0,0,0,-0.0759,-0.076,-0.0775,-0.0797,-0.0796,-0.0754,-0.0755,-0.0734,-0.0766,-0.0778,-0.0779,-0.0772,-0.077,-0.0757,-0.0755,-0.072,-0.0761,-0.076,-0.0759,-0.0758,-0.0721,-0.0721,0,0,0,0,0,0,-0.0769,-0.0761,-0.0776,-0.0773,-0.0781,-0.0753,-0.0755,-0.0772,-0.0765,-0.0765,-0.077,-0.0773,-0.0759,-0.0757,-0.0755,-0.0751,-0.0759,-0.0758,-0.0757,-0.0721,-0.0721,-0.0721,0,0,0,0,0,0,-0.0769,-0.0772,-0.0778,-0.0764,-0.0762,-0.0753,-0.0771,-0.077,-0.0779,-0.0759,-0.0761,-0.0782,-0.076,-0.0758,-0.0759,-0.075,-0.0757,-0.0755,-0.0721,-0.0721,-0.0721,-0.071,0,0,0,0,0,0,-0.0769,-0.0773,-0.0786,-0.0765,-0.0763,-0.0731,-0.0769,-0.0768,-0.0769,-0.0773,-0.0769,-0.0769,-0.0761,-0.0762,-0.0758,-0.0747,-0.0754,-0.0721,-0.0721,-0.0721,-0.071,-0.0709,-0.0709,0,0,0,0,0,-0.0769,-0.0752,-0.0788,-0.0789,-0.0784,-0.0729,-0.0722,-0.0722,-0.0769,-0.0744,-0.0774,-0.0771,-0.076,-0.0761,-0.0755,-0.0744,-0.0721,-0.0721,-0.0721,-0.071,-0.0709,-0.0709,0,0,0,0,0,0,-0.0741,-0.0752,-0.0791,-0.0783,-0.0762,-0.0733,-0.0705,-0.0731,-0.0734,-0.0752,-0.0767,-0.0767,-0.076,-0.0758,-0.0759,-0.0737,-0.0741,-0.074,-0.0734,-0.0733,-0.0733,-0.0758,-0.0753,0,0,0,0,0,-0.0748,-0.0749,-0.0748,-0.0742,-0.0731,-0.0735,-0.0719,-0.0723,-0.0721,-0.0726,-0.0725,-0.0739,-0.0749,-0.075,-0.0735,-0.0722,-0.0725,-0.0715,-0.0714,-0.0714,-0.0732,-0.0727,-0.0728,-0.0721,-0.0721,-0.0721,0,0,-0.074,-0.0743,-0.0748,-0.0737,-0.0727,-0.0709,-0.0729,-0.0695,-0.0704,-0.0723,-0.0725,-0.0726,-0.0744,-0.0729,-0.0727,-0.0733,-0.0713,-0.0714,-0.0713,-0.0733,-0.0728,-0.0728,-0.0729,-0.0721,-0.0721,-0.0721,0,0,-0.068,-0.0725,-0.0692,-0.0684,-0.0665,-0.0676,-0.0677,-0.0655,-0.0667,-0.0665,-0.0695,-0.0703,-0.0694,-0.0706,-0.0721,-0.0711,-0.0705,-0.0702,-0.0723,-0.0717,-0.0718,-0.0718,-0.0704,-0.0703,-0.0708,-0.0708,-0.0708,0,-0.0676,-0.0659,-0.0666,-0.0632,-0.0642,-0.0674,-0.0655,-0.0661,-0.0647,-0.0663,-0.0664,-0.0687,-0.0689,-0.072,-0.0723,-0.0709,-0.0706,-0.0722,-0.0716,-0.0717,-0.0718,-0.0703,-0.0703,-0.0708,-0.0708,-0.0708,-0.0708,0,-0.0566,-0.0594,-0.0566,-0.0576,-0.0575,-0.0556,-0.0585,-0.0589,-0.0629,-0.0643,-0.0658,-0.066,-0.0682,-0.0679,-0.0707,-0.0719,-0.0713,-0.0708,-0.0717,-0.0718,-0.0702,-0.0702,-0.0707,-0.0707,-0.0707,-0.0707,0,0,-0.0484,-0.0497,-0.0497,-0.0532,-0.0559,-0.0548,-0.0577,-0.0605,-0.0635,-0.0632,-0.0657,-0.0683,-0.069,-0.0709,-0.0722,-0.0732,-0.0727,-0.0734,-0.0733,-0.0719,-0.0711,-0.064,-0.0633,-0.0721,-0.0722,-0.0722,-0.069,0,-0.0418,-0.0382,-0.0403,-0.0428,-0.0442,-0.0508,-0.0529,-0.0567,-0.0607,-0.0623,-0.0662,-0.0673,-0.0702,-0.0704,-0.0724,-0.0727,-0.073,-0.0736,-0.0715,-0.0714,-0.065,-0.0632,-0.0723,-0.069,-0.069,-0.069,-0.069,0,-0.031,-0.0324,-0.0324,-0.0414,-0.0417,-0.0435,-0.0515,-0.0533,-0.0588,-0.0602,-0.0643,-0.0666,-0.0703,-0.0706,-0.0733,-0.0736,-0.0732,-0.0731,-0.0729,-0.0674,-0.0644,-0.0695,-0.069,-0.069,-0.069,-0.069,-0.069,0,-0.0263,-0.0288,-0.0309,-0.0331,-0.0402,-0.0427,-0.0469,-0.0529,-0.0547,-0.0594,-0.0596,-0.0649,-0.0652,-0.068,-0.0701,-0.0714,-0.0708,-0.0713,-0.0645,-0.0639,-0.0719,-0.0719,-0.0718,-0.0718,-0.0718,-0.0718,-0.0719,0,-0.021,-0.0235,-0.0292,-0.0311,-0.034,-0.0398,-0.0429,-0.0468,-0.0506,-0.0527,-0.0582,-0.0592,-0.0646,-0.066,-0.0687,-0.0662,-0.0692,-0.0648,-0.0627,-0.0712,-0.0712,-0.0718,-0.0718,-0.0717,-0.0717,-0.0718,-0.0718,0,-0.017,-0.0199,-0.024,-0.0308,-0.0327,-0.0352,-0.0407,-0.0419,-0.0456,-0.0482,-0.0492,-0.054,-0.0553,-0.0591,-0.0611,-0.0612,-0.061,-0.0589,-0.0669,-0.0652,-0.055,-0.0551,-0.0512,-0.0509,-0.0507,-0.0505,-0.0503,0,-0.0149,-0.0166,-0.0233,-0.0248,-0.0282,-0.0322,-0.0338,-0.0389,-0.0408,-0.0456,-0.0459,-0.0475,-0.0508,-0.0486,-0.0522,-0.0531,-0.0533,-0.052,-0.0557,-0.0546,-0.053,-0.0534,-0.0537,-0.05,-0.0499,-0.0498,-0.0498,0,-0.0139,-0.016,-0.0186,-0.0212,-0.0237,-0.026,-0.03,-0.0306,-0.0364,-0.0392,-0.0423,-0.0438,-0.0431,-0.0455,-0.044,-0.0461,-0.0529,-0.0496,-0.0502,-0.0537,-0.0531,-0.0518,-0.0524,-0.049,-0.0491,-0.0492,-0.0492,0,-0.0132,-0.014,-0.0167,-0.0183,-0.0194,-0.0203,-0.0234,-0.0268,-0.0292,-0.0364,-0.0373,-0.0404,-0.0437,-0.0415,-0.0421,-0.041,-0.0416,-0.0423,-0.0433,-0.0442,-0.0432,-0.0415,-0.0317,0,0,0,0,0,-0.0137,-0.0132,-0.0139,-0.0146,-0.014,-0.0149,-0.0203,-0.0237,-0.03,-0.0313,-0.0349,-0.0358,-0.0359,-0.0371,-0.0345,-0.0362,-0.0399,-0.0328,-0.0407,-0.0445,-0.0454,-0.0448,0,0,0,0,0,0,-0.0138,-0.0139,-0.0132,-0.0098,-0.0081,-0.008,-0.0113,-0.0161,-0.0187,-0.0258,-0.0266,-0.031,-0.0315,-0.0353,-0.0324,-0.0324,-0.0364,-0.0345,-0.0344,-0.0439,-0.0448,-0.0455,-0.0453,0,0,0,0,0]},{"header":{"parameterUnit":"m.s-1","parameterCategory":2,"la1":30.2991,"la2":30.254,"lo1":-89.0895,"lo2":-89.0444,"dy":0.0017,"dx":0.0017,"nx":28,"ny":28,"refTime":"2024-08-11T03:00:00:Z","depth":"4","parameterNumber":3,"parameterNumberName":"V-component_of_CURRENTS"},"data":[0,0,0,0,0,0,0,0,0,0,0,0,0,0,0,0,0,0,0,0,0,0,0,0,0,0,0,0,0,0,0,0,0,0,0,0,0,0,0,0,0,0,0,0,0,0,0,0,0,0,0,0,0,0,0,0,0,0,-0.052,-0.052,0,-0.0581,-0.0582,-0.0583,-0.0566,-0.0564,-0.0563,-0.0561,-0.064,-0.0644,-0.0647,0,0,0,0,0,0,0,0,0,0,0,0,0,-0.0397,-0.0399,-0.052,-0.052,-0.0521,-0.0581,-0.0582,-0.0583,-0.0566,-0.0564,-0.0562,-0.0561,-0.0639,-0.0643,-0.0647,0,0,0,0,0,0,0,0,0,0,0,0,0,-0.0455,-0.04,-0.0519,-0.0518,-0.0518,-0.0581,-0.0582,-0.0583,-0.0566,-0.0564,-0.0562,-0.056,-0.0638,-0.0643,-0.0648,-0.0722,0,0,-0.0663,-0.0666,0,0,0,0,0,0,0,0,-0.0452,-0.046,-0.0518,-0.0518,-0.0519,-0.0562,-0.0568,-0.063,-0.0567,-0.055,-0.0561,-0.0559,-0.0616,-0.0623,-0.0642,-0.0726,-0.0729,-0.0664,-0.0667,-0.0669,-0.0671,0,0,0,0,0,0,0,-0.0448,-0.0457,-0.0546,-0.0518,-0.0519,-0.0518,-0.0524,-0.058,-0.0596,-0.0551,-0.055,-0.0554,-0.0616,-0.0637,-0.0643,-0.0731,-0.0664,-0.0668,-0.0672,-0.0674,-0.0797,-0.0797,0,0,0,0,0,0,-0.0439,-0.0454,-0.0544,-0.0548,-0.0477,-0.0521,-0.0528,-0.0552,-0.0595,-0.0599,-0.0556,-0.0553,-0.0629,-0.0637,-0.0646,-0.068,-0.0669,-0.0674,-0.0677,-0.0797,-0.0797,-0.0798,0,0,0,0,0,0,-0.0437,-0.0448,-0.0541,-0.0499,-0.0511,-0.0526,-0.0552,-0.0554,-0.0582,-0.0598,-0.0602,-0.0582,-0.0628,-0.0639,-0.069,-0.0685,-0.0676,-0.0681,-0.0797,-0.0797,-0.0797,-0.0784,0,0,0,0,0,0,-0.0433,-0.0447,-0.0471,-0.0499,-0.0513,-0.0588,-0.0554,-0.0557,-0.0587,-0.0584,-0.0623,-0.0627,-0.0627,-0.0682,-0.0695,-0.0692,-0.0685,-0.0797,-0.0797,-0.0797,-0.0785,-0.0784,-0.0784,0,0,0,0,0,-0.0429,-0.0475,-0.0472,-0.0483,-0.0542,-0.0589,-0.0598,-0.06,-0.059,-0.0616,-0.0626,-0.0626,-0.0692,-0.0688,-0.0703,-0.07,-0.0796,-0.0797,-0.0797,-0.0785,-0.0784,-0.0784,0,0,0,0,0,0,-0.044,-0.0479,-0.0475,-0.0532,-0.0558,-0.0586,-0.062,-0.0618,-0.0651,-0.0654,-0.0655,-0.0661,-0.0691,-0.0712,-0.0707,-0.0734,-0.0735,-0.0739,-0.072,-0.0721,-0.072,-0.0705,-0.0689,0,0,0,0,0,-0.0453,-0.0502,-0.0522,-0.0574,-0.0589,-0.0608,-0.0631,-0.0635,-0.0661,-0.0674,-0.0698,-0.0711,-0.0708,-0.0728,-0.0746,-0.0794,-0.0773,-0.0793,-0.0793,-0.0793,-0.0789,-0.0763,-0.0759,-0.0799,-0.0799,-0.0799,0,0,-0.0475,-0.0503,-0.0531,-0.058,-0.0606,-0.0619,-0.0619,-0.0669,-0.067,-0.0682,-0.0718,-0.0726,-0.072,-0.0741,-0.0757,-0.076,-0.0766,-0.0793,-0.0793,-0.0789,-0.0762,-0.0758,-0.0755,-0.0799,-0.0799,-0.0799,0,0,-0.0524,-0.0568,-0.0603,-0.0621,-0.0658,-0.0667,-0.0681,-0.072,-0.0728,-0.0769,-0.0744,-0.0752,-0.08,-0.0768,-0.0757,-0.0779,-0.0762,-0.0788,-0.0784,-0.0758,-0.0754,-0.075,-0.0695,-0.0687,-0.0791,-0.0791,-0.0791,0,-0.054,-0.0578,-0.0623,-0.0641,-0.0649,-0.0681,-0.069,-0.0712,-0.0759,-0.0763,-0.0779,-0.0791,-0.0796,-0.0762,-0.0753,-0.0775,-0.0755,-0.0783,-0.0755,-0.0752,-0.0748,-0.0693,-0.0684,-0.0791,-0.0791,-0.0791,-0.0791,0,-0.0581,-0.0607,-0.0638,-0.0657,-0.068,-0.0712,-0.0722,-0.0754,-0.0773,-0.0777,-0.0789,-0.0799,-0.0793,-0.0789,-0.0778,-0.0747,-0.0737,-0.0753,-0.0752,-0.0743,-0.0685,-0.0676,-0.079,-0.079,-0.079,-0.079,0,0,-0.0612,-0.0652,-0.0658,-0.0654,-0.0685,-0.0707,-0.072,-0.0728,-0.0727,-0.0773,-0.0766,-0.0756,-0.0771,-0.0759,-0.0751,-0.0732,-0.0677,-0.0737,-0.0736,-0.0674,-0.06,-0.0523,-0.0505,-0.0695,-0.0694,-0.0694,-0.0561,0,-0.0615,-0.0639,-0.0657,-0.0669,-0.0674,-0.0693,-0.0697,-0.0713,-0.0733,-0.0749,-0.0746,-0.0749,-0.0753,-0.0755,-0.0735,-0.07,-0.0657,-0.071,-0.0626,-0.0623,-0.0549,-0.0494,-0.069,-0.0554,-0.0552,-0.0551,-0.0549,0,-0.0619,-0.0635,-0.0646,-0.0654,-0.0659,-0.0668,-0.0676,-0.0687,-0.07,-0.0716,-0.0722,-0.0735,-0.0706,-0.0725,-0.0647,-0.0686,-0.0635,-0.0607,-0.0602,-0.0529,-0.0529,-0.0573,-0.0532,-0.0534,-0.0535,-0.0536,-0.0537,0,-0.0597,-0.0617,-0.0625,-0.0628,-0.0648,-0.0654,-0.0665,-0.0681,-0.0685,-0.0701,-0.0708,-0.0694,-0.0684,-0.0644,-0.0585,-0.062,-0.0494,-0.0532,-0.0401,-0.0394,-0.0512,-0.0518,-0.0454,-0.0454,-0.0454,-0.0455,-0.0455,0,-0.0576,-0.0581,-0.0618,-0.0621,-0.0628,-0.0647,-0.0654,-0.0664,-0.0674,-0.067,-0.0695,-0.0675,-0.0668,-0.0608,-0.0563,-0.0435,-0.0465,-0.0372,-0.035,-0.0507,-0.0514,-0.0503,-0.0511,-0.045,-0.0451,-0.0452,-0.0453,0,-0.055,-0.0572,-0.0584,-0.0612,-0.0621,-0.0632,-0.065,-0.0653,-0.0663,-0.0657,-0.0662,-0.0646,-0.0562,-0.0516,-0.0426,-0.038,-0.0285,-0.0225,-0.0356,-0.0348,-0.0209,-0.0218,-0.0075,-0.0071,-0.0068,-0.0065,-0.0063,0,-0.054,-0.0547,-0.0586,-0.0597,-0.0613,-0.063,-0.0641,-0.0652,-0.065,-0.0624,-0.0615,-0.0543,-0.0519,-0.0316,-0.0283,-0.0153,-0.0144,-0.0089,-0.0183,-0.0175,-0.0168,-0.0182,-0.0195,-0.0057,-0.0056,-0.0056,-0.0055,0,-0.052,-0.0545,-0.0557,-0.0583,-0.0602,-0.0619,-0.0632,-0.062,-0.0621,-0.0623,-0.0536,-0.0458,-0.0344,-0.0257,-0.0138,-0.0063,-0.0137,-0.0055,-0.0063,-0.0151,-0.0152,-0.0152,-0.0168,-0.0043,-0.0045,-0.0046,-0.0047,0,-0.0513,-0.0521,-0.0546,-0.0562,-0.0589,-0.0605,-0.061,-0.0583,-0.057,-0.0535,-0.0491,-0.0399,-0.0352,-0.0203,-0.0103,-0.001,-0.0013,-0.0014,-0.0025,-0.0037,-0.0081,-0.008,0.0097,0,0,0,0,0,-0.0503,-0.0507,-0.0523,-0.0545,-0.0572,-0.0591,-0.0604,-0.0605,-0.0592,-0.0514,-0.0497,-0.0385,-0.0222,-0.0167,-0.0054,-0.007,-0.0019,0.0062,-0.0032,0.0021,0.0008,-0.0046,0,0,0,0,0,0,-0.0493,-0.0506,-0.0513,-0.0529,-0.0545,-0.0574,-0.0585,-0.0579,-0.0528,-0.0499,-0.0408,-0.0357,-0.0204,-0.028,-0.0052,-0.0026,-0.0069,0.0133,0.0135,0.0029,0.0016,0.0006,-0.0054,0,0,0,0,0]}]]